Omaha, IA

12:13 PM CST on February 20, 2018 (GMT -0600)
Eppley Airfield

Weather History for KOMA - November, 2010

Change the Weather History Date:

Sunday, November 28, 2010

  Actual Average Record
Temperature  
Mean Temperature 45 °F 32 °F  
Max Temperature 56 °F 42 °F 65 °F (2006)
Min Temperature 33 °F 23 °F -4 °F (1976)
Degree Days  
Heating Degree Days 20 33  
Month to date heating degree days 679 718  
Since 1 July heating degree days 976 1203  
Cooling Degree Days 0 0  
Month to date cooling degree days 0 0  
Year to date cooling degree days 1388 1112  
Moisture  
Dew Point 23 °F    
Average Humidity 44    
Maximum Humidity 64    
Minimum Humidity 24    
Precipitation  
Precipitation 0.00 in 0.05 in 0.47 in (1971)
Month to date precipitation 2.11 1.55  
Year to date precipitation 34.18 29.49  
Snow  
Snow 0.00 in 0.20 in - ()
Month to date snowfall 2.8 2.2  
Since 1 July snowfall 2.8 2.5  
Snow Depth 0.00 in    
Sea Level Pressure  
Sea Level Pressure 29.69 in    
Wind  
Wind Speed 21 mph (SSE)    
Max Wind Speed 40 mph    
Max Gust Speed 51 mph    
Visibility 10 miles    
Events      
T = Trace of Precipitation, MM = Missing Value Source: NWS Daily Summary

Daily Weather History Graph

Daily Weather History Graph

Search for Another Location

Airport or City:

Trip Planner

Search our weather history database for the weather conditions in past years. The results will help you decide how hot, cold, wet, or windy it might be!

Date:

Astronomy

Nov. 28, 2010 Rise Set
Actual Time 7:26 AM CST 4:56 PM CST
Civil Twilight 6:56 AM CST 5:26 PM CST
Nautical Twilight 6:22 AM CST 6:00 PM CST
Astronomical Twilight 5:48 AM CST 6:33 PM CST
Moon No Moon Rise 12:32 PM CST (11/28)
Length of Visible Light 10h 30m
Length of Day
9h 29m
Waning Gibbous, 51% of the Moon is Illuminated
Nov 28
Waning Gibbous
Nov 28
Last Quarter
Dec 5
New
Dec 13
First Quarter
Dec 21
Full

Hourly Weather History & Observations

Time (CST) Temp. Windchill Dew Point Humidity Pressure Visibility Wind Dir Wind Speed Gust Speed Precip Events Conditions
12:52 AM 37.9 °F 30.9 °F 25.0 °F 60% 29.91 in 10.0 mi South 10.4 mph - N/A   Mostly Cloudy
1:52 AM 36.0 °F 28.0 °F 25.0 °F 64% 29.89 in 10.0 mi SSE 11.5 mph - N/A   Mostly Cloudy
2:52 AM 36.0 °F 27.5 °F 25.0 °F 64% 29.88 in 10.0 mi SSE 12.7 mph - N/A   Clear
3:52 AM 36.0 °F 27.1 °F 25.0 °F 64% 29.86 in 10.0 mi SSE 13.8 mph - N/A   Scattered Clouds
4:52 AM 36.0 °F 28.0 °F 24.1 °F 62% 29.85 in 10.0 mi SSE 11.5 mph - N/A   Scattered Clouds
5:52 AM 35.1 °F 26.9 °F 24.1 °F 64% 29.84 in 10.0 mi SSE 11.5 mph - N/A   Scattered Clouds
6:52 AM 36.0 °F 26.3 °F 24.1 °F 62% 29.81 in 10.0 mi SSE 16.1 mph - N/A   Scattered Clouds
7:52 AM 37.0 °F 27.0 °F 23.0 °F 57% 29.79 in 10.0 mi SSE 18.4 mph - N/A   Mostly Cloudy
8:52 AM 39.9 °F 30.0 °F 24.1 °F 53% 29.76 in 10.0 mi SSE 21.9 mph 27.6 mph N/A   Mostly Cloudy
9:52 AM 44.1 °F 34.4 °F 23.0 °F 43% 29.75 in 10.0 mi South 27.6 mph 34.5 mph N/A   Mostly Cloudy
10:52 AM 46.9 °F - 23.0 °F 39% 29.71 in 10.0 mi SSE 27.6 mph 36.8 mph N/A   Mostly Cloudy
11:52 AM 48.9 °F - 23.0 °F 36% 29.66 in 10.0 mi SSE 32.2 mph 39.1 mph N/A   Mostly Cloudy
12:52 PM 53.1 °F - 23.0 °F 31% 29.61 in 10.0 mi South 27.6 mph 36.8 mph N/A   Mostly Cloudy
1:52 PM 55.0 °F - 19.0 °F 24% 29.57 in 10.0 mi South 31.1 mph 40.3 mph N/A   Scattered Clouds
2:52 PM 55.9 °F - 19.0 °F 24% 29.53 in 10.0 mi SSE 34.5 mph 50.6 mph N/A   Mostly Cloudy
3:52 PM 55.0 °F - 19.0 °F 24% 29.53 in 10.0 mi SSE 28.8 mph 43.7 mph N/A   Mostly Cloudy
4:52 PM 53.1 °F - 19.0 °F 26% 29.55 in 10.0 mi SSE 21.9 mph 38.0 mph N/A   Mostly Cloudy
5:52 PM 52.0 °F - 19.9 °F 28% 29.56 in 10.0 mi South 21.9 mph 34.5 mph N/A   Mostly Cloudy
6:52 PM 51.1 °F - 21.9 °F 32% 29.57 in 10.0 mi South 23.0 mph 28.8 mph N/A   Mostly Cloudy
7:52 PM 48.9 °F - 23.0 °F 36% 29.59 in 10.0 mi SSE 23.0 mph - N/A   Scattered Clouds
8:52 PM 48.9 °F - 25.0 °F 39% 29.59 in 10.0 mi SSE 24.2 mph 32.2 mph N/A   Scattered Clouds
9:52 PM 48.0 °F - 26.1 °F 42% 29.59 in 10.0 mi South 21.9 mph 28.8 mph N/A   Mostly Cloudy
10:52 PM 48.9 °F - 27.0 °F 43% 29.57 in 10.0 mi South 20.7 mph 32.2 mph N/A   Mostly Cloudy
11:52 PM 48.9 °F - 28.9 °F 46% 29.57 in 10.0 mi SSE 20.7 mph 27.6 mph N/A   Mostly Cloudy